| time (UTC) | temp F | wind direction | speed knots | gust knots | rain 1hr in | rain 24hr in | rain mn in | humidity % | barometer mb |
| 20260505011334 | 72 | 327 | 3.5 | 8.7 | 0.00 | 0.00 | 0.00 | 36 | 1003.7 |
| 20260505010334 | 72 | 238 | 3.5 | 9.6 | 0.00 | 0.00 | 0.00 | 36 | 1003.6 |
| 20260505005321 | 73 | 311 | 1.7 | 5.2 | 0.00 | 0.00 | 0.00 | 36 | 1003.2 |
| 20260505004333 | 74 | 105 | 1.7 | 8.7 | 0.00 | 0.00 | 0.00 | 38 | 1002.7 |
| 20260505003330 | 76 | 313 | 2.6 | 8.7 | 0.00 | 0.00 | 0.00 | 38 | 1002.4 |
| 20260505002318 | 77 | 326 | 2.6 | 6.1 | 0.00 | 0.00 | 0.00 | 38 | 1002.2 |
| 20260505001604 | 78 | 15 | 1.7 | 6.1 | 0.00 | 0.00 | 0.00 | 38 | 1001.9 |
| 20260505000339 | 79 | 32 | 0.9 | 4.3 | 0.00 | 0.00 | 0.00 | 34 | 1001.9 |
| 20260504235318 | 80 | 319 | 0.0 | 2.6 | 0.00 | 0.00 | 0.00 | 31 | 1001.8 |
| 20260504234325 | 82 | 337 | 0.0 | 1.7 | 0.00 | 0.00 | 0.00 | 29 | 1001.8 |
| 20260504233325 | 83 | 255 | 0.0 | 1.7 | 0.00 | 0.00 | 0.00 | 28 | 1001.7 |
| 20260504232329 | 85 | 304 | 0.9 | 2.6 | 0.00 | 0.00 | 0.00 | 30 | 1001.6 |
| 20260504231337 | 85 | 271 | 0.0 | 2.6 | 0.00 | 0.00 | 0.00 | 32 | 1001.5 |
| 20260504230335 | 84 | 259 | 0.9 | 5.2 | 0.00 | 0.00 | 0.00 | 27 | 1001.5 |
| 20260504225320 | 85 | 250 | 2.6 | 4.3 | 0.00 | 0.00 | 0.00 | 28 | 1001.5 |
| 20260504224334 | 85 | 256 | 0.9 | 3.5 | 0.00 | 0.00 | 0.00 | 27 | 1001.5 |
| 20260504223334 | 84 | 304 | 0.9 | 3.5 | 0.00 | 0.00 | 0.00 | 27 | 1001.5 |
| 20260504222321 | 84 | 301 | 0.9 | 7.0 | 0.00 | 0.00 | 0.00 | 27 | 1001.5 |
| 20260504221335 | 84 | 6 | 2.6 | 8.7 | 0.00 | 0.00 | 0.00 | 28 | 1001.5 |
| 20260504220334 | 85 | 323 | 1.7 | 6.1 | 0.00 | 0.00 | 0.00 | 27 | 1001.5 |
| 20260504215322 | 84 | 298 | 1.7 | 4.3 | 0.00 | 0.00 | 0.00 | 28 | 1001.4 |
| 20260504214335 | 84 | 274 | 3.5 | 7.8 | 0.00 | 0.00 | 0.00 | 27 | 1001.4 |
| 20260504213334 | 85 | 289 | 2.6 | 7.0 | 0.00 | 0.00 | 0.00 | 29 | 1001.4 |
| 20260504212340 | 84 | 311 | 1.7 | 8.7 | 0.00 | 0.00 | 0.00 | 30 | 1001.4 |
| 20260504212103 | 83 | 286 | 4.3 | 9.6 | 0.00 | 0.00 | 0.00 | 30 | 1001.4 |
| 20260504210325 | 83 | 274 | 8.7 | 13.9 | 0.00 | 0.00 | 0.00 | 24 | 1001.4 |
| 20260504205330 | 83 | 263 | 6.1 | 11.3 | 0.00 | 0.00 | 0.00 | 28 | 1001.5 |
| 20260504204317 | 84 | 246 | 6.1 | 11.3 | 0.00 | 0.00 | 0.00 | 27 | 1001.5 |
| 20260504203333 | 83 | 224 | 5.2 | 13.0 | 0.00 | 0.00 | 0.00 | 29 | 1001.7 |
| 20260504202320 | 83 | 245 | 3.5 | 11.3 | 0.00 | 0.00 | 0.00 | 32 | 1001.7 |
| 20260504201318 | 83 | 283 | 2.6 | 11.3 | 0.00 | 0.00 | 0.00 | 34 | 1001.7 |
| 20260504200335 | 83 | 220 | 2.6 | 7.0 | 0.00 | 0.00 | 0.00 | 32 | 1001.7 |
| 20260504195605 | 83 | 231 | 2.6 | 11.3 | 0.00 | 0.00 | 0.00 | 36 | 1001.8 |
| 20260504193335 | 83 | 11 | 1.7 | 9.6 | 0.00 | 0.00 | 0.00 | 36 | 1001.8 |
| 20260504192106 | 83 | 283 | 3.5 | 7.8 | 0.00 | 0.00 | 0.00 | 32 | 1001.9 |
| 20260504185337 | 82 | 337 | 3.5 | 10.4 | 0.00 | 0.00 | 0.00 | 39 | 1002.1 |
| 20260504184322 | 82 | 279 | 4.3 | 8.7 | 0.00 | 0.00 | 0.00 | 37 | 1002.1 |
| 20260504183320 | 81 | 284 | 2.6 | 9.6 | 0.00 | 0.00 | 0.00 | 42 | 1002.1 |
| 20260504182325 | 81 | 257 | 1.7 | 10.4 | 0.00 | 0.00 | 0.00 | 42 | 1002.2 |
| 20260504181332 | 82 | 266 | 3.5 | 7.8 | 0.00 | 0.00 | 0.00 | 43 | 1002.2 |
| 20260504180329 | 81 | 263 | 5.2 | 7.0 | 0.00 | 0.00 | 0.00 | 41 | 1002.2 |
| 20260504175335 | 81 | 245 | 2.6 | 6.1 | 0.00 | 0.00 | 0.00 | 41 | 1002.3 |
| 20260504174322 | 80 | 220 | 4.3 | 7.0 | 0.00 | 0.00 | 0.00 | 45 | 1002.3 |
| 20260504173319 | 80 | 239 | 2.6 | 7.0 | 0.00 | 0.00 | 0.00 | 45 | 1002.3 |
| 20260504172321 | 78 | 228 | 3.5 | 8.7 | 0.00 | 0.00 | 0.00 | 47 | 1002.5 |
| 20260504171328 | 78 | 255 | 3.5 | 8.7 | 0.00 | 0.00 | 0.00 | 45 | 1002.6 |
| 20260504170327 | 77 | 252 | 4.3 | 7.8 | 0.00 | 0.00 | 0.00 | 48 | 1002.8 |
| 20260504160347 | 75 | 229 | 5.2 | 8.7 | 0.00 | 0.00 | 0.00 | 51 | 1002.6 |
| 20260504150325 | 72 | 240 | 7.0 | 9.6 | 0.00 | 0.00 | 0.00 | 54 | 1002.7 |
| 20260504141324 | 68 | 201 | 5.2 | 9.6 | 0.00 | 0.00 | 0.00 | 61 | 1002.7 |
| 20260504140338 | 67 | 207 | 4.3 | 7.0 | 0.00 | 0.00 | 0.00 | 66 | 1002.8 |
| 20260504130319 | 63 | 222 | 0.0 | 0.9 | 0.00 | 0.00 | 0.00 | 78 | 1003.3 |
| 20260504110322 | 52 | 326 | 0.0 | 1.7 | 0.00 | 0.00 | 0.00 | 83 | 1002.8 |
| 20260504100341 | 51 | 42 | 1.7 | 1.7 | 0.00 | 0.00 | 0.00 | 83 | 1003.6 |
| 20260504081327 | 51 | 349 | 0.0 | 0.9 | 0.00 | 0.00 | 0.00 | 90 | 1005.5 |
| 20260504080324 | 51 | 348 | 0.0 | 0.0 | 0.00 | 0.00 | 0.00 | 89 | 1005.7 |
| 20260504070329 | 52 | 226 | 0.9 | 2.6 | 0.00 | 0.00 | 0.00 | 86 | 1007.2 |
| 20260504050402 | 53 | 291 | 0.0 | 0.9 | 0.00 | 0.00 | 0.00 | 85 | 1008.5 |
| 20260504045322 | 53 | 291 | 0.0 | 0.9 | 0.00 | 0.00 | 0.00 | 85 | 1008.6 |
| 20260504044327 | 53 | 291 | 0.0 | 0.0 | 0.00 | 0.00 | 0.00 | 83 | 1008.3 |
| 20260504043325 | 54 | 291 | 0.0 | 0.0 | 0.00 | 0.00 | 0.00 | 81 | 1008.2 |
| 20260504042353 | 55 | 291 | 0.0 | 1.7 | 0.00 | 0.00 | 0.00 | 80 | 1008.1 |
| 20260504041320 | 55 | 291 | 0.9 | 1.7 | 0.00 | 0.00 | 0.00 | 76 | 1008.2 |
| 20260504040341 | 55 | 212 | 0.0 | 1.7 | 0.00 | 0.00 | 0.00 | 82 | 1008.4 |
| 20260504035837 | 54 | 280 | 0.9 | 0.9 | 0.00 | 0.00 | 0.00 | 82 | 1008.3 |
| 20260504034325 | 54 | 280 | 0.0 | 0.0 | 0.00 | 0.00 | 0.00 | 82 | 1008.5 |
| 20260504033323 | 54 | 3 | 0.0 | 2.6 | 0.00 | 0.00 | 0.00 | 82 | 1008.6 |
| 20260504032331 | 55 | 316 | 1.7 | 2.6 | 0.00 | 0.00 | 0.00 | 81 | 1008.6 |
| 20260504031319 | 55 | 311 | 0.9 | 0.9 | 0.00 | 0.00 | 0.00 | 80 | 1008.7 |
| 20260504030318 | 56 | 310 | 0.9 | 1.7 | 0.00 | 0.00 | 0.00 | 79 | 1008.7 |
| 20260504025317 | 57 | 310 | 1.7 | 1.7 | 0.00 | 0.00 | 0.00 | 76 | 1008.8 |
| 20260504024324 | 58 | 295 | 0.9 | 1.7 | 0.00 | 0.00 | 0.00 | 74 | 1008.7 |
| 20260504023322 | 58 | 295 | 0.9 | 1.7 | 0.00 | 0.00 | 0.00 | 71 | 1008.6 |
| 20260504022348 | 58 | 294 | 0.9 | 0.9 | 0.00 | 0.00 | 0.00 | 73 | 1008.7 |
| 20260504021332 | 59 | 294 | 0.9 | 0.9 | 0.00 | 0.00 | 0.00 | 72 | 1008.6 |
| 20260504020330 | 60 | 294 | 0.9 | 0.9 | 0.00 | 0.00 | 0.00 | 66 | 1008.8 |
| 20260504015317 | 60 | 294 | 0.0 | 1.7 | 0.00 | 0.00 | 0.00 | 66 | 1008.9 |
| 20260504014324 | 60 | 293 | 0.9 | 0.9 | 0.00 | 0.00 | 0.00 | 69 | 1008.8 |
| 20260504013323 | 62 | 294 | 0.9 | 1.7 | 0.00 | 0.00 | 0.00 | 65 | 1008.9 |
| 20260504012331 | 64 | 293 | 0.0 | 0.0 | 0.00 | 0.00 | 0.00 | 57 | 1008.8 |